User: anonymous   Login
Location: Unspecified
(0.0000°N, 0.0000°E)
Time: 18:11:46
(UTC+00:00)
Language:

STARLINK-30823 - Orbit

View from above orbital plane
View from above orbital plane
View from above satellite
View from above satellite

Ground track
Ground track

The orbit is defined by the following mean orbital elements,

1 58248U          26145.44925707 +.00000000 +00000-0 +11984-3 0 00002
2 58248  43.0037 211.7492 0002071 270.0185  90.0429 15.27579360    04
Epoch (UTC): 25 May 2026 10:46:55
Eccentricity: 0.0002071
inclination: 43.0037°
perigee height: 482 km
apogee height: 484 km
right ascension of ascending node: 211.7492°
argument of perigee: 270.0185°
revolutions per day: 15.27579360
mean anomaly at epoch: 90.0429°

The dashed part of the orbit path shows where the satellite is in the earth's shadow,  

DLR